Year,Month,Day,Hour,Minute,Value (Times are PST for temperature in C)
2016,10,22,00,00,8.10
2016,10,22,00,01,8.10
2016,10,22,00,02,8.10
2016,10,22,00,03,8.10
2016,10,22,00,04,8.10
2016,10,22,00,05,8.10
2016,10,22,00,06,8.10
2016,10,22,00,07,8.10
2016,10,22,00,08,8.10
2016,10,22,00,09,8.10
2016,10,22,00,10,8.10
2016,10,22,00,11,8.10
2016,10,22,00,12,8.00
2016,10,22,00,13,8.00
2016,10,22,00,14,8.00
2016,10,22,00,15,8.00
2016,10,22,00,16,8.00
2016,10,22,00,17,8.00
2016,10,22,00,18,7.90
2016,10,22,00,19,7.90
2016,10,22,00,20,7.90
2016,10,22,00,21,7.90
2016,10,22,00,22,7.90
2016,10,22,00,23,7.90
2016,10,22,00,24,7.90
2016,10,22,00,25,7.90
2016,10,22,00,26,7.90
2016,10,22,00,27,7.80
2016,10,22,00,28,7.80
2016,10,22,00,29,7.80
2016,10,22,00,30,7.80
2016,10,22,00,31,7.80
2016,10,22,00,32,7.80
2016,10,22,00,33,7.80
2016,10,22,00,34,7.80
2016,10,22,00,35,7.70
2016,10,22,00,36,7.70
2016,10,22,00,37,7.70
2016,10,22,00,38,7.70
2016,10,22,00,39,7.70
2016,10,22,00,40,7.70
2016,10,22,00,41,7.70
2016,10,22,00,42,7.60
2016,10,22,00,43,7.60
2016,10,22,00,44,7.60
2016,10,22,00,45,7.60
2016,10,22,00,46,7.60
2016,10,22,00,47,7.60
2016,10,22,00,48,7.60
2016,10,22,00,49,7.60
2016,10,22,00,50,7.50
2016,10,22,00,51,7.50
2016,10,22,00,52,7.50
2016,10,22,00,53,7.50
2016,10,22,00,54,7.50
2016,10,22,00,55,7.40
2016,10,22,00,56,7.40
2016,10,22,00,57,7.40
2016,10,22,00,58,7.40
2016,10,22,00,59,7.40
2016,10,22,01,00,7.40
2016,10,22,01,01,7.30
2016,10,22,01,02,7.30
2016,10,22,01,03,7.30
2016,10,22,01,04,7.30
2016,10,22,01,05,7.30
2016,10,22,01,06,7.30
2016,10,22,01,07,7.30
2016,10,22,01,08,7.30
2016,10,22,01,09,7.20
2016,10,22,01,10,7.20
2016,10,22,01,11,7.20
2016,10,22,01,12,7.20
2016,10,22,01,13,7.20
2016,10,22,01,14,7.20
2016,10,22,01,15,7.20
2016,10,22,01,16,7.20
2016,10,22,01,17,7.20
2016,10,22,01,18,7.10
2016,10,22,01,19,7.10
2016,10,22,01,20,7.10
2016,10,22,01,21,7.10
2016,10,22,01,22,7.10
2016,10,22,01,23,7.10
2016,10,22,01,24,7.00
2016,10,22,01,25,7.00
2016,10,22,01,26,7.00
2016,10,22,01,27,7.00
2016,10,22,01,28,6.90
2016,10,22,01,29,6.90
2016,10,22,01,30,6.90
2016,10,22,01,31,6.90
2016,10,22,01,32,6.90
2016,10,22,01,33,6.80
2016,10,22,01,34,6.80
2016,10,22,01,35,6.80
2016,10,22,01,36,6.80
2016,10,22,01,37,6.70
2016,10,22,01,38,6.70
2016,10,22,01,39,6.70
2016,10,22,01,40,6.70
2016,10,22,01,41,6.70
2016,10,22,01,42,6.70
2016,10,22,01,43,6.60
2016,10,22,01,44,6.60
2016,10,22,01,45,6.60
2016,10,22,01,46,6.60
2016,10,22,01,47,6.60
2016,10,22,01,48,6.60
2016,10,22,01,49,6.60
2016,10,22,01,50,6.60
2016,10,22,01,51,6.60
2016,10,22,01,52,6.60
2016,10,22,01,53,6.60
2016,10,22,01,54,6.60
2016,10,22,01,55,6.60
2016,10,22,01,56,6.60
2016,10,22,01,57,6.60
2016,10,22,01,58,6.60
2016,10,22,01,59,6.60
2016,10,22,02,00,6.60
2016,10,22,02,01,6.60
2016,10,22,02,02,6.50
2016,10,22,02,03,6.50
2016,10,22,02,04,6.50
2016,10,22,02,05,6.50
2016,10,22,02,06,6.50
2016,10,22,02,07,6.40
2016,10,22,02,08,6.40
2016,10,22,02,09,6.40
2016,10,22,02,10,6.40
2016,10,22,02,11,6.40
2016,10,22,02,12,6.40
2016,10,22,02,13,6.40
2016,10,22,02,14,6.40
2016,10,22,02,15,6.40
2016,10,22,02,16,6.30
2016,10,22,02,17,6.30
2016,10,22,02,18,6.30
2016,10,22,02,19,6.30
2016,10,22,02,20,6.30
2016,10,22,02,21,6.30
2016,10,22,02,22,6.30
2016,10,22,02,23,6.30
2016,10,22,02,24,6.20
2016,10,22,02,25,6.20
2016,10,22,02,26,6.20
2016,10,22,02,27,6.20
2016,10,22,02,28,6.20
2016,10,22,02,29,6.20
2016,10,22,02,30,6.20
2016,10,22,02,31,6.10
2016,10,22,02,32,6.10
2016,10,22,02,33,6.10
2016,10,22,02,34,6.10
2016,10,22,02,35,6.10
2016,10,22,02,36,6.10
2016,10,22,02,37,6.10
2016,10,22,02,38,6.00
2016,10,22,02,39,6.00
2016,10,22,02,40,6.00
2016,10,22,02,41,5.90
2016,10,22,02,42,5.90
2016,10,22,02,43,5.90
2016,10,22,02,44,5.90
2016,10,22,02,45,5.90
2016,10,22,02,46,5.90
2016,10,22,02,47,5.90
2016,10,22,02,48,5.90
2016,10,22,02,49,5.90
2016,10,22,02,50,5.90
2016,10,22,02,51,5.90
2016,10,22,02,52,5.80
2016,10,22,02,53,5.80
2016,10,22,02,54,5.80
2016,10,22,02,55,5.80
2016,10,22,02,56,5.80
2016,10,22,02,57,5.80
2016,10,22,02,58,5.90
2016,10,22,02,59,5.90
2016,10,22,03,00,5.90
2016,10,22,03,01,5.90
2016,10,22,03,02,5.90
2016,10,22,03,03,5.90
2016,10,22,03,04,5.90
2016,10,22,03,05,5.90
2016,10,22,03,06,5.90
2016,10,22,03,07,5.90
2016,10,22,03,08,5.90
2016,10,22,03,09,5.90
2016,10,22,03,10,5.90
2016,10,22,03,11,5.90
2016,10,22,03,12,5.90
2016,10,22,03,13,5.90
2016,10,22,03,14,5.90
2016,10,22,03,15,5.80
2016,10,22,03,16,5.80
2016,10,22,03,17,5.80
2016,10,22,03,18,5.80
2016,10,22,03,19,5.80
2016,10,22,03,20,5.80
2016,10,22,03,21,5.80
2016,10,22,03,22,5.80
2016,10,22,03,23,5.80
2016,10,22,03,24,5.80
2016,10,22,03,25,5.80
2016,10,22,03,26,5.70
2016,10,22,03,27,5.80
2016,10,22,03,28,5.80
2016,10,22,03,29,5.80
2016,10,22,03,30,5.70
2016,10,22,03,31,5.70
2016,10,22,03,32,5.70
2016,10,22,03,33,5.80
2016,10,22,03,34,5.70
2016,10,22,03,35,5.70
2016,10,22,03,36,5.70
2016,10,22,03,37,5.70
2016,10,22,03,38,5.70
2016,10,22,03,39,5.70
2016,10,22,03,40,5.70
2016,10,22,03,41,5.70
2016,10,22,03,42,5.70
2016,10,22,03,43,5.80
2016,10,22,03,44,5.80
2016,10,22,03,45,5.80
2016,10,22,03,46,5.80
2016,10,22,03,47,5.80
2016,10,22,03,48,5.80
2016,10,22,03,49,5.80
2016,10,22,03,50,5.80
2016,10,22,03,51,5.80
2016,10,22,03,52,5.90
2016,10,22,03,53,5.90
2016,10,22,03,54,5.90
2016,10,22,03,55,5.90
2016,10,22,03,56,5.90
2016,10,22,03,57,5.90
2016,10,22,03,58,5.90
2016,10,22,03,59,6.00
2016,10,22,04,00,6.00
2016,10,22,04,01,6.00
2016,10,22,04,02,6.00
2016,10,22,04,03,6.10
2016,10,22,04,04,6.10
2016,10,22,04,05,6.10
2016,10,22,04,06,6.10
2016,10,22,04,07,6.10
2016,10,22,04,08,6.10
2016,10,22,04,09,6.10
2016,10,22,04,10,6.10
2016,10,22,04,11,6.10
2016,10,22,04,12,6.10
2016,10,22,04,13,6.10
2016,10,22,04,14,6.10
2016,10,22,04,15,6.10
2016,10,22,04,16,6.10
2016,10,22,04,17,6.10
2016,10,22,04,18,6.10
2016,10,22,04,19,6.10
2016,10,22,04,20,6.10
2016,10,22,04,21,6.10
2016,10,22,04,22,6.10
2016,10,22,04,23,6.10
2016,10,22,04,24,6.00
2016,10,22,04,25,6.00
2016,10,22,04,26,6.00
2016,10,22,04,27,5.90
2016,10,22,04,28,5.90
2016,10,22,04,29,5.90
2016,10,22,04,30,5.90
2016,10,22,04,31,5.80
2016,10,22,04,32,5.80
2016,10,22,04,33,5.80
2016,10,22,04,34,5.80
2016,10,22,04,35,5.70
2016,10,22,04,36,5.70
2016,10,22,04,37,5.70
2016,10,22,04,38,5.70
2016,10,22,04,39,5.70
2016,10,22,04,40,5.70
2016,10,22,04,41,5.70
2016,10,22,04,42,5.70
2016,10,22,04,43,5.70
2016,10,22,04,44,5.70
2016,10,22,04,45,5.70
2016,10,22,04,46,5.80
2016,10,22,04,47,5.80
2016,10,22,04,48,5.80
2016,10,22,04,49,5.80
2016,10,22,04,50,5.80
2016,10,22,04,51,5.80
2016,10,22,04,52,5.80
2016,10,22,04,53,5.90
2016,10,22,04,54,5.90
2016,10,22,04,55,5.90
2016,10,22,04,56,5.90
2016,10,22,04,57,6.00
2016,10,22,04,58,6.00
2016,10,22,04,59,6.00
2016,10,22,05,00,6.00
2016,10,22,05,01,6.10
2016,10,22,05,02,6.10
2016,10,22,05,03,6.10
2016,10,22,05,04,6.10
2016,10,22,05,05,6.10
2016,10,22,05,06,6.10
2016,10,22,05,07,6.10
2016,10,22,05,08,6.10
2016,10,22,05,09,6.10
2016,10,22,05,10,6.10
2016,10,22,05,11,6.10
2016,10,22,05,12,6.10
2016,10,22,05,13,6.10
2016,10,22,05,14,6.10
2016,10,22,05,15,6.10
2016,10,22,05,16,6.10
2016,10,22,05,17,6.10
2016,10,22,05,18,6.10
2016,10,22,08,59,9.70
2016,10,22,09,00,9.70
2016,10,22,09,01,9.70
2016,10,22,09,02,9.70
2016,10,22,09,03,9.70
2016,10,22,09,04,9.70
2016,10,22,09,05,9.70
2016,10,22,09,06,9.70
2016,10,22,09,07,9.70
2016,10,22,09,08,9.70
2016,10,22,09,09,9.80
2016,10,22,09,10,9.80
2016,10,22,09,11,9.80
2016,10,22,09,12,9.80
2016,10,22,09,13,9.80
2016,10,22,09,14,9.80
2016,10,22,09,15,9.80
2016,10,22,09,16,9.90
2016,10,22,09,17,9.90
2016,10,22,09,18,9.90
2016,10,22,09,19,9.90
2016,10,22,09,20,9.90
2016,10,22,09,21,9.90
2016,10,22,09,22,10.00
2016,10,22,09,23,10.00
2016,10,22,09,24,10.00
2016,10,22,09,25,10.00
2016,10,22,09,26,10.10
2016,10,22,09,27,10.10
2016,10,22,09,28,10.10
2016,10,22,09,29,10.10
2016,10,22,09,30,10.10
2016,10,22,09,31,10.10
2016,10,22,09,32,10.10
2016,10,22,09,33,10.20
2016,10,22,09,34,10.20
2016,10,22,09,35,10.20
2016,10,22,09,36,10.20
2016,10,22,09,37,10.20
2016,10,22,09,38,10.20
2016,10,22,09,39,10.20
2016,10,22,09,40,10.20
2016,10,22,09,41,10.20
2016,10,22,09,42,10.20
2016,10,22,09,43,10.20
2016,10,22,09,44,10.20
2016,10,22,09,45,10.20
2016,10,22,09,46,10.30
2016,10,22,09,47,10.20
2016,10,22,09,48,10.30
2016,10,22,09,49,10.30
2016,10,22,09,50,10.30
2016,10,22,09,51,10.30
2016,10,22,09,52,10.30
2016,10,22,09,53,10.30
2016,10,22,09,54,10.30
2016,10,22,09,55,10.30
2016,10,22,09,56,10.30
2016,10,22,09,57,10.30
2016,10,22,09,58,10.30
2016,10,22,09,59,10.30
2016,10,22,10,00,10.40
2016,10,22,10,01,10.40
2016,10,22,10,02,10.40
2016,10,22,10,03,10.40
2016,10,22,10,04,10.40
2016,10,22,10,05,10.40
2016,10,22,10,06,10.50
2016,10,22,10,07,10.50
2016,10,22,10,08,10.50
2016,10,22,10,09,10.50
2016,10,22,10,10,10.50
2016,10,22,10,11,10.60
2016,10,22,10,12,10.60
2016,10,22,10,13,10.60
2016,10,22,10,14,10.60
2016,10,22,10,15,10.60
2016,10,22,10,16,10.60
2016,10,22,10,17,10.60
2016,10,22,10,18,10.70
2016,10,22,10,19,10.70
2016,10,22,10,20,10.70
2016,10,22,10,21,10.70
2016,10,22,10,22,10.70
2016,10,22,10,23,10.70
2016,10,22,10,24,10.80
2016,10,22,10,25,10.80
2016,10,22,10,26,10.80
2016,10,22,10,27,10.80
2016,10,22,10,28,10.80
2016,10,22,10,29,10.80
2016,10,22,10,30,10.80
2016,10,22,10,31,10.80
2016,10,22,10,32,10.80
2016,10,22,10,33,10.80
2016,10,22,10,34,10.80
2016,10,22,10,35,10.80
2016,10,22,10,36,10.80
2016,10,22,10,37,10.80
2016,10,22,10,38,10.80
2016,10,22,10,39,10.80
2016,10,22,10,40,10.80
2016,10,22,10,41,10.80
2016,10,22,10,42,10.80
2016,10,22,10,43,10.80
2016,10,22,10,44,10.80
2016,10,22,10,45,10.90
2016,10,22,10,46,10.90
2016,10,22,10,47,10.90
2016,10,22,10,48,10.90
2016,10,22,10,49,10.80
2016,10,22,10,50,10.90
2016,10,22,10,51,10.90
2016,10,22,10,52,10.90
2016,10,22,10,53,10.90
2016,10,22,10,54,10.90
2016,10,22,10,55,10.90
2016,10,22,10,56,10.90
2016,10,22,10,57,10.90
2016,10,22,10,58,10.90
2016,10,22,10,59,10.90
2016,10,22,11,00,10.90
2016,10,22,11,01,10.90
2016,10,22,11,02,10.90
2016,10,22,11,03,10.90
2016,10,22,11,04,10.90
2016,10,22,11,05,10.90
2016,10,22,11,06,10.90
2016,10,22,11,07,10.80
2016,10,22,11,08,10.80
2016,10,22,11,09,10.80
2016,10,22,11,10,10.80
2016,10,22,11,11,10.80
2016,10,22,11,12,10.80
2016,10,22,11,13,10.90
2016,10,22,11,14,10.90
2016,10,22,11,15,10.90
2016,10,22,11,16,10.90
2016,10,22,11,17,10.90
2016,10,22,11,18,10.90
2016,10,22,11,19,10.90
2016,10,22,11,20,10.90
2016,10,22,11,21,10.90
2016,10,22,11,22,10.90
2016,10,22,11,23,10.80
2016,10,22,11,24,10.80
2016,10,22,11,25,10.80
2016,10,22,11,26,10.80
2016,10,22,11,27,10.80
2016,10,22,11,28,10.80
2016,10,22,11,29,10.90
2016,10,22,11,30,10.90
2016,10,22,11,31,10.90
2016,10,22,11,32,10.90
2016,10,22,11,33,10.90
2016,10,22,11,34,10.90
2016,10,22,11,35,10.90
2016,10,22,11,36,10.90
2016,10,22,11,37,10.90
2016,10,22,11,38,10.90
2016,10,22,11,39,10.90
2016,10,22,11,40,10.90
2016,10,22,11,41,10.90
2016,10,22,11,42,10.90
2016,10,22,11,43,10.90
2016,10,22,11,44,10.90
2016,10,22,11,45,10.90
2016,10,22,11,46,10.90
2016,10,22,11,47,10.90
2016,10,22,11,48,10.90
2016,10,22,11,49,10.90
2016,10,22,11,50,10.90
2016,10,22,11,51,10.90
2016,10,22,11,52,10.90
2016,10,22,11,53,10.90
2016,10,22,11,54,10.90
2016,10,22,11,55,10.80
2016,10,22,11,56,10.80
2016,10,22,11,57,10.80
2016,10,22,11,58,10.80
2016,10,22,11,59,10.70
2016,10,22,12,00,10.70
2016,10,22,12,01,10.70
2016,10,22,12,02,10.70
2016,10,22,12,03,10.70
2016,10,22,12,04,10.70
2016,10,22,12,05,10.70
2016,10,22,12,06,10.70
2016,10,22,12,07,10.70
2016,10,22,12,08,10.70
2016,10,22,12,09,10.70
2016,10,22,12,10,10.70
2016,10,22,12,11,10.70
2016,10,22,12,12,10.70
2016,10,22,12,13,10.70
2016,10,22,12,14,10.70
2016,10,22,12,15,10.70
2016,10,22,12,16,10.70
2016,10,22,12,17,10.70
2016,10,22,12,18,10.70
2016,10,22,12,19,10.70
2016,10,22,12,20,10.70
2016,10,22,12,21,10.70
2016,10,22,12,22,10.70
2016,10,22,12,23,10.70
2016,10,22,12,24,10.70
2016,10,22,12,25,10.70
2016,10,22,12,26,10.70
2016,10,22,12,27,10.70
2016,10,22,12,28,10.70
2016,10,22,12,29,10.70
2016,10,22,12,30,10.70
2016,10,22,12,31,10.70
2016,10,22,12,32,10.70
2016,10,22,12,33,10.70
2016,10,22,12,34,10.70
2016,10,22,12,35,10.70
2016,10,22,12,36,10.70
2016,10,22,12,37,10.70
2016,10,22,12,38,10.70
2016,10,22,12,39,10.70
2016,10,22,12,40,10.70
2016,10,22,12,41,10.70
2016,10,22,12,42,10.80
2016,10,22,12,43,10.80
2016,10,22,12,44,10.80
2016,10,22,12,45,10.80
2016,10,22,12,46,10.80
2016,10,22,12,47,10.80
2016,10,22,12,48,10.80
2016,10,22,12,49,10.80
2016,10,22,12,50,10.80
2016,10,22,12,51,10.80
2016,10,22,12,52,10.80
2016,10,22,12,53,10.80
2016,10,22,12,54,10.80
2016,10,22,12,55,10.80
2016,10,22,12,56,10.80
2016,10,22,12,57,10.80
2016,10,22,12,58,10.80
2016,10,22,12,59,10.80
2016,10,22,13,00,10.80
2016,10,22,13,01,10.80
2016,10,22,13,02,10.80
2016,10,22,13,03,10.80
2016,10,22,13,04,10.90
2016,10,22,13,05,10.90
2016,10,22,13,06,10.90
2016,10,22,13,07,10.90
2016,10,22,13,08,10.90
2016,10,22,13,09,10.90
2016,10,22,13,10,10.90
2016,10,22,13,11,10.90
2016,10,22,13,12,10.90
2016,10,22,13,13,10.90
2016,10,22,13,14,10.90
2016,10,22,13,15,11.00
2016,10,22,13,16,11.00
2016,10,22,13,17,11.00
2016,10,22,13,18,11.00
2016,10,22,13,19,11.00
2016,10,22,13,20,11.10
2016,10,22,13,21,11.10
2016,10,22,13,22,11.10
2016,10,22,13,23,11.10
2016,10,22,13,24,11.10
2016,10,22,13,25,11.20
2016,10,22,13,26,11.20
2016,10,22,13,27,11.20
2016,10,22,13,28,11.20
2016,10,22,13,29,11.20
2016,10,22,13,30,11.20
2016,10,22,13,31,11.30
2016,10,22,13,32,11.30
2016,10,22,13,33,11.30
2016,10,22,13,34,11.30
2016,10,22,13,35,11.30
2016,10,22,13,36,11.30
2016,10,22,13,37,11.30
2016,10,22,13,38,11.30
2016,10,22,13,39,11.40
2016,10,22,13,40,11.40
2016,10,22,13,41,11.40
2016,10,22,13,42,11.40
2016,10,22,13,43,11.40
2016,10,22,13,44,11.40
2016,10,22,13,45,11.40
2016,10,22,13,46,11.40
2016,10,22,13,47,11.40
2016,10,22,13,48,11.40
2016,10,22,13,49,11.40
2016,10,22,13,50,11.40
2016,10,22,13,51,11.40
2016,10,22,13,52,11.40
2016,10,22,13,53,11.40
2016,10,22,13,54,11.40
2016,10,22,13,55,11.40
2016,10,22,13,56,11.40
2016,10,22,13,57,11.40
2016,10,22,13,58,11.40
2016,10,22,13,59,11.40
2016,10,22,14,00,11.40
2016,10,22,14,01,11.40
2016,10,22,14,02,11.40
2016,10,22,14,03,11.40
2016,10,22,14,04,11.40
2016,10,22,14,05,11.50
2016,10,22,14,06,11.50
2016,10,22,14,07,11.50
2016,10,22,14,08,11.50
2016,10,22,14,09,11.50
2016,10,22,14,10,11.50
2016,10,22,14,11,11.50
2016,10,22,14,12,11.50
2016,10,22,14,13,11.50
2016,10,22,14,14,11.50
2016,10,22,14,15,11.50
2016,10,22,14,16,11.50
2016,10,22,14,17,11.60
2016,10,22,14,18,11.60
2016,10,22,14,19,11.60
2016,10,22,14,20,11.60
2016,10,22,14,21,11.60
2016,10,22,14,22,11.60
2016,10,22,14,23,11.60
2016,10,22,14,24,11.60
2016,10,22,14,25,11.60
2016,10,22,14,26,11.60
2016,10,22,14,27,11.60
2016,10,22,14,28,11.60
2016,10,22,14,29,11.60
2016,10,22,14,30,11.60
2016,10,22,14,31,11.60
2016,10,22,14,32,11.60
2016,10,22,14,33,11.60
2016,10,22,14,34,11.60
2016,10,22,14,35,11.70
2016,10,22,14,36,11.70
2016,10,22,14,37,11.70
2016,10,22,14,38,11.70
2016,10,22,14,39,11.70
2016,10,22,14,40,11.70
2016,10,22,14,41,11.80
2016,10,22,14,42,11.80
2016,10,22,14,43,11.80
2016,10,22,14,44,11.80
2016,10,22,14,45,11.80
2016,10,22,14,46,11.80
2016,10,22,14,47,11.80
2016,10,22,14,48,11.80
2016,10,22,14,49,11.80
2016,10,22,14,50,11.70
2016,10,22,14,51,11.70
2016,10,22,14,52,11.70
2016,10,22,14,53,11.70
2016,10,22,14,54,11.70
2016,10,22,14,55,11.70
2016,10,22,14,56,11.70
2016,10,22,14,57,11.70
2016,10,22,14,58,11.70
2016,10,22,14,59,11.70
2016,10,22,15,00,11.70
2016,10,22,15,01,11.70
2016,10,22,15,02,11.70
2016,10,22,15,03,11.70
2016,10,22,15,04,11.70
2016,10,22,15,05,11.70
2016,10,22,15,06,11.70
2016,10,22,15,07,11.70
2016,10,22,15,08,11.70
2016,10,22,15,09,11.70
2016,10,22,15,10,11.70
2016,10,22,15,11,11.70
2016,10,22,15,12,11.70
2016,10,22,15,13,11.70
2016,10,22,15,14,11.70
2016,10,22,15,15,11.70
2016,10,22,15,16,11.70
2016,10,22,15,17,11.70
2016,10,22,15,18,11.70
2016,10,22,15,19,11.70
2016,10,22,15,20,11.70
2016,10,22,15,21,11.70
2016,10,22,15,22,11.70
2016,10,22,15,23,11.70
2016,10,22,15,24,11.70
2016,10,22,15,25,11.70
2016,10,22,15,26,11.80
2016,10,22,15,27,11.80
2016,10,22,15,28,11.80
2016,10,22,15,29,11.80
2016,10,22,15,30,11.90
2016,10,22,15,31,11.90
2016,10,22,15,32,11.90
2016,10,22,15,33,11.90
2016,10,22,15,34,11.90
2016,10,22,15,35,11.90
2016,10,22,15,36,11.90
2016,10,22,15,37,11.90
2016,10,22,15,38,11.90
2016,10,22,15,39,11.90
2016,10,22,15,40,11.90
2016,10,22,15,41,11.90
2016,10,22,15,42,11.90
2016,10,22,15,43,11.90
2016,10,22,15,44,11.90
2016,10,22,15,45,11.90
2016,10,22,15,46,11.90
2016,10,22,15,47,11.90
2016,10,22,15,48,11.90
2016,10,22,15,49,11.90
2016,10,22,15,50,11.90
2016,10,22,15,51,11.80
2016,10,22,15,52,11.80
2016,10,22,15,53,11.80
2016,10,22,15,54,11.80
2016,10,22,15,55,11.80
2016,10,22,15,56,11.80
2016,10,22,15,57,11.80
2016,10,22,15,58,11.80
2016,10,22,15,59,11.80
2016,10,22,16,00,11.80
2016,10,22,16,01,11.80
2016,10,22,16,02,11.80
2016,10,22,16,03,11.80
2016,10,22,16,04,11.80
2016,10,22,16,05,11.80
2016,10,22,16,06,11.80
2016,10,22,16,07,11.80
2016,10,22,16,08,11.80
2016,10,22,16,09,11.80
2016,10,22,16,10,11.90
2016,10,22,16,11,11.90
2016,10,22,16,12,11.90
2016,10,22,16,13,11.90
2016,10,22,16,14,11.90
2016,10,22,16,15,11.90
2016,10,22,16,16,11.90
2016,10,22,16,17,11.90
2016,10,22,16,18,11.90
2016,10,22,16,19,11.90
2016,10,22,16,20,12.00
2016,10,22,16,21,12.00
2016,10,22,16,22,12.00
2016,10,22,16,23,12.00
2016,10,22,16,24,12.00
2016,10,22,16,25,12.00
2016,10,22,16,26,12.00
2016,10,22,16,27,12.00
2016,10,22,16,28,12.00
2016,10,22,16,29,12.00
2016,10,22,16,30,12.10
2016,10,22,16,31,12.10
2016,10,22,16,32,12.10
2016,10,22,16,33,12.10
2016,10,22,16,34,12.10
2016,10,22,16,35,12.10
2016,10,22,16,36,12.10
2016,10,22,16,37,12.10
2016,10,22,16,38,12.10
2016,10,22,16,39,12.10
2016,10,22,16,40,12.10
2016,10,22,16,41,12.10
2016,10,22,16,42,12.10
2016,10,22,16,43,12.10
2016,10,22,16,44,12.10
2016,10,22,16,45,12.10
2016,10,22,16,46,12.10
2016,10,22,16,47,12.10
2016,10,22,16,48,12.10
2016,10,22,16,49,12.10
2016,10,22,16,50,12.10
2016,10,22,16,51,12.00
2016,10,22,16,52,12.00
2016,10,22,16,53,12.00
2016,10,22,16,54,12.00
2016,10,22,16,55,12.00
2016,10,22,16,56,12.00
2016,10,22,16,57,11.90
2016,10,22,16,58,11.90
2016,10,22,16,59,11.90
2016,10,22,17,00,11.90
2016,10,22,17,01,11.90
2016,10,22,17,02,11.90
2016,10,22,17,03,11.90
2016,10,22,17,04,11.90
2016,10,22,17,05,11.90
2016,10,22,17,06,11.90
2016,10,22,17,07,11.90
2016,10,22,17,08,11.90
2016,10,22,17,09,11.80
2016,10,22,17,10,11.80
2016,10,22,17,11,11.80
2016,10,22,17,12,11.80
2016,10,22,17,13,11.80
2016,10,22,17,14,11.80
2016,10,22,17,15,11.80
2016,10,22,17,16,11.80
2016,10,22,17,17,11.80
2016,10,22,17,18,11.80
2016,10,22,17,19,11.80
2016,10,22,17,20,11.80
2016,10,22,17,21,11.70
2016,10,22,17,22,11.70
2016,10,22,17,23,11.70
2016,10,22,17,24,11.70
2016,10,22,17,25,11.70
2016,10,22,17,26,11.70
2016,10,22,17,27,11.70
2016,10,22,17,28,11.70
2016,10,22,17,29,11.60
2016,10,22,17,30,11.60
2016,10,22,17,31,11.60
2016,10,22,17,32,11.60
2016,10,22,17,33,11.60
2016,10,22,17,34,11.60
2016,10,22,17,35,11.50
2016,10,22,17,36,11.50
2016,10,22,17,37,11.50
2016,10,22,17,38,11.50
2016,10,22,17,39,11.50
2016,10,22,17,40,11.40
2016,10,22,17,41,11.40
2016,10,22,17,42,11.40
2016,10,22,17,43,11.40
2016,10,22,17,44,11.40
2016,10,22,17,45,11.40
2016,10,22,17,46,11.40
2016,10,22,17,47,11.40
2016,10,22,17,48,11.40
2016,10,22,17,49,11.30
2016,10,22,17,50,11.30
2016,10,22,17,51,11.30
2016,10,22,17,52,11.30
2016,10,22,17,53,11.30
2016,10,22,17,54,11.30
2016,10,22,17,55,11.30
2016,10,22,17,56,11.30
2016,10,22,17,57,11.30
2016,10,22,17,58,11.30
2016,10,22,17,59,11.30
2016,10,22,18,00,11.20
2016,10,22,18,01,11.20
2016,10,22,18,02,11.20
2016,10,22,18,03,11.20
2016,10,22,18,04,11.20
2016,10,22,18,05,11.20
2016,10,22,18,06,11.20
2016,10,22,18,07,11.20
2016,10,22,18,08,11.20
2016,10,22,18,09,11.20
2016,10,22,18,10,11.20
2016,10,22,18,11,11.10
2016,10,22,18,12,11.10
2016,10,22,18,13,11.10
2016,10,22,18,14,11.10
2016,10,22,18,15,11.10
2016,10,22,18,16,11.10
2016,10,22,18,17,11.10
2016,10,22,18,18,11.10
2016,10,22,18,19,11.10
2016,10,22,18,20,11.10
2016,10,22,18,21,11.00
2016,10,22,18,22,11.00
2016,10,22,18,23,11.00
2016,10,22,18,24,11.00
2016,10,22,18,25,11.00
2016,10,22,18,26,11.00
2016,10,22,18,27,10.90
2016,10,22,18,28,10.90
2016,10,22,18,29,10.90
2016,10,22,18,30,10.90
2016,10,22,18,31,10.90
2016,10,22,18,32,10.90
2016,10,22,18,33,10.90
2016,10,22,18,34,10.90
2016,10,22,18,35,10.90
2016,10,22,18,36,10.80
2016,10,22,18,37,10.80
2016,10,22,18,38,10.80
2016,10,22,18,39,10.80
2016,10,22,18,40,10.80
2016,10,22,18,41,10.80
2016,10,22,18,42,10.80
2016,10,22,18,43,10.80
2016,10,22,18,44,10.80
2016,10,22,18,45,10.80
2016,10,22,18,46,10.80
2016,10,22,18,47,10.80
2016,10,22,18,48,10.80
2016,10,22,18,49,10.80
2016,10,22,18,50,10.80
2016,10,22,18,51,10.80
2016,10,22,18,52,10.80
2016,10,22,18,53,10.80
2016,10,22,18,54,10.70
2016,10,22,18,55,10.70
2016,10,22,18,56,10.70
2016,10,22,18,57,10.70
2016,10,22,18,58,10.70
2016,10,22,18,59,10.70
2016,10,22,19,00,10.70
2016,10,22,19,01,10.70
2016,10,22,19,02,10.70
2016,10,22,19,03,10.60
2016,10,22,19,04,10.60
2016,10,22,19,05,10.60
2016,10,22,19,06,10.60
2016,10,22,19,07,10.60
2016,10,22,19,08,10.60
2016,10,22,19,09,10.60
2016,10,22,19,10,10.60
2016,10,22,19,11,10.60
2016,10,22,19,12,10.60
2016,10,22,19,13,10.60
2016,10,22,19,14,10.60
2016,10,22,19,15,10.50
2016,10,22,19,16,10.50
2016,10,22,19,17,10.50
2016,10,22,19,18,10.50
2016,10,22,19,19,10.50
2016,10,22,19,20,10.50
2016,10,22,19,21,10.50
2016,10,22,19,22,10.50
2016,10,22,19,23,10.50
2016,10,22,19,24,10.50
2016,10,22,19,25,10.50
2016,10,22,19,26,10.50
2016,10,22,19,27,10.50
2016,10,22,19,28,10.50
2016,10,22,19,29,10.50
2016,10,22,19,30,10.50
2016,10,22,19,31,10.50
2016,10,22,19,32,10.50
2016,10,22,19,33,10.50
2016,10,22,19,34,10.50
2016,10,22,19,35,10.50
2016,10,22,19,36,10.50
2016,10,22,19,37,10.50
2016,10,22,19,38,10.40
2016,10,22,19,39,10.40
2016,10,22,19,40,10.40
2016,10,22,19,41,10.40
2016,10,22,19,42,10.40
2016,10,22,19,43,10.40
2016,10,22,19,44,10.40
2016,10,22,19,45,10.40
2016,10,22,19,46,10.40
2016,10,22,19,47,10.40
2016,10,22,19,48,10.40
2016,10,22,19,49,10.40
2016,10,22,19,50,10.40
2016,10,22,19,51,10.40
2016,10,22,19,52,10.40
2016,10,22,19,53,10.40
2016,10,22,19,54,10.40
2016,10,22,19,55,10.40
2016,10,22,19,56,10.40
2016,10,22,19,57,10.40
2016,10,22,19,58,10.40
2016,10,22,19,59,10.40
2016,10,22,20,00,10.40
2016,10,22,20,01,10.40
2016,10,22,20,02,10.40
2016,10,22,20,03,10.40
2016,10,22,20,04,10.40
2016,10,22,20,05,10.40
2016,10,22,20,06,10.40
2016,10,22,20,07,10.40
2016,10,22,20,08,10.40
2016,10,22,20,09,10.40
2016,10,22,20,10,10.40
2016,10,22,20,11,10.40
2016,10,22,20,12,10.40
2016,10,22,20,13,10.40
2016,10,22,20,14,10.40
2016,10,22,20,15,10.40
2016,10,22,20,16,10.40
2016,10,22,20,17,10.40
2016,10,22,20,18,10.40
2016,10,22,20,19,10.40
2016,10,22,20,20,10.40
2016,10,22,20,21,10.40
2016,10,22,20,22,10.40
2016,10,22,20,23,10.40
2016,10,22,20,24,10.40
2016,10,22,20,25,10.40
2016,10,22,20,26,10.40
2016,10,22,20,27,10.40
2016,10,22,20,28,10.40
2016,10,22,20,29,10.40
2016,10,22,20,30,10.40
2016,10,22,20,31,10.40
2016,10,22,20,32,10.40
2016,10,22,20,33,10.40
2016,10,22,20,34,10.40
2016,10,22,20,35,10.40
2016,10,22,20,36,10.30
2016,10,22,20,37,10.40
2016,10,22,20,38,10.40
2016,10,22,20,39,10.40
2016,10,22,20,40,10.30
2016,10,22,20,41,10.30
2016,10,22,20,42,10.40
2016,10,22,20,43,10.40
2016,10,22,20,44,10.30
2016,10,22,20,45,10.30
2016,10,22,20,46,10.30
2016,10,22,20,47,10.40
2016,10,22,20,48,10.30
2016,10,22,20,49,10.30
2016,10,22,20,50,10.40
2016,10,22,20,51,10.30
2016,10,22,20,52,10.30
2016,10,22,20,53,10.40
2016,10,22,20,54,10.40
2016,10,22,20,55,10.40
2016,10,22,20,56,10.40
2016,10,22,20,57,10.40
2016,10,22,20,58,10.40
2016,10,22,20,59,10.40
2016,10,22,21,00,10.40
2016,10,22,21,01,10.40
2016,10,22,21,02,10.40
2016,10,22,21,03,10.40
2016,10,22,21,04,10.40
2016,10,22,21,05,10.40
2016,10,22,21,06,10.40
2016,10,22,21,07,10.40
2016,10,22,21,08,10.40
2016,10,22,21,09,10.40
2016,10,22,21,10,10.40
2016,10,22,21,11,10.40
2016,10,22,21,12,10.40
2016,10,22,21,13,10.40
2016,10,22,21,14,10.40